カタログに戻る

BREEZE-M DEB

運用中HEO
NORAD 38593·DEBRIS·🇷🇺 Russia

打ち上げ Mar 14, 2008 から Baikonur Cosmodrome

Loading…

次のパス (今後24時間)

TLE

最新Source: Space-Track

元期: Sep 14, 2026, 04:08 UTC

1 38593U 08011AQ  26257.17260599  .00000341  00000-0  23316-2 0  9994
2 38593  49.3131 253.7573 6569796 309.8147   8.6097  3.03522000172132

AllMySatでBREEZE-M DEBをリアルタイム追跡

Download on the App Store